| time (UTC) | temp C | wind direction | speed KPH | gust KPH | rain 1hr cm | rain 24hr cm | rain mn cm | humidity % | barometer mb |
| 20260503010027 | 18 | 208 | 1.6 | 9.7 | 0.00 | 0.00 | 0.00 | 25 | 1015.3 |
| 20260503005509 | 18 | 250 | 1.6 | 9.7 | 0.00 | 0.00 | 0.00 | 23 | 1015.3 |
| 20260503005009 | 18 | 227 | 1.6 | 9.7 | 0.00 | 0.00 | 0.00 | 23 | 1015.3 |
| 20260503004525 | 18 | 215 | 4.8 | 12.9 | 0.00 | 0.00 | 0.00 | 22 | 1015.3 |
| 20260503003022 | 18 | 360 | 6.4 | 14.5 | 0.00 | 0.00 | 0.00 | 20 | 1015.3 |
| 20260503002506 | 19 | 44 | 3.2 | 12.9 | 0.00 | 0.00 | 0.00 | 20 | 1015.4 |
| 20260503002007 | 19 | 204 | 3.2 | 12.9 | 0.00 | 0.00 | 0.00 | 19 | 1015.3 |
| 20260503001520 | 19 | 218 | 3.2 | 9.7 | 0.00 | 0.00 | 0.00 | 20 | 1015.3 |
| 20260503001007 | 19 | 333 | 4.8 | 14.5 | 0.00 | 0.00 | 0.00 | 19 | 1015.3 |
| 20260503000511 | 19 | 338 | 1.6 | 14.5 | 0.00 | 0.00 | 0.00 | 20 | 1015.3 |
| 20260503000024 | 19 | 329 | 3.2 | 17.7 | 0.00 | 0.00 | 0.00 | 18 | 1015.3 |
| 20260502235509 | 19 | 232 | 4.8 | 17.7 | 0.00 | 0.00 | 0.00 | 16 | 1015.3 |
| 20260502235010 | 19 | 242 | 6.4 | 17.7 | 0.00 | 0.00 | 0.00 | 17 | 1015.3 |
| 20260502234530 | 19 | 252 | 6.4 | 17.7 | 0.00 | 0.00 | 0.00 | 18 | 1015.2 |
| 20260502234011 | 19 | 311 | 3.2 | 17.7 | 0.00 | 0.00 | 0.00 | 20 | 1015.3 |
| 20260502233027 | 19 | 309 | 4.8 | 14.5 | 0.00 | 0.00 | 0.00 | 21 | 1015.3 |
| 20260502232509 | 19 | 296 | 3.2 | 12.9 | 0.00 | 0.00 | 0.00 | 21 | 1015.4 |
| 20260502232011 | 18 | 226 | 8.0 | 12.9 | 0.00 | 0.00 | 0.00 | 21 | 1015.5 |
| 20260502231517 | 19 | 227 | 3.2 | 12.9 | 0.00 | 0.00 | 0.00 | 22 | 1015.3 |
| 20260502231008 | 19 | 218 | 6.4 | 12.9 | 0.00 | 0.00 | 0.00 | 23 | 1015.5 |
| 20260502230508 | 19 | 225 | 4.8 | 16.1 | 0.00 | 0.00 | 0.00 | 23 | 1015.5 |
| 20260502230021 | 19 | 223 | 6.4 | 16.1 | 0.00 | 0.00 | 0.00 | 24 | 1015.5 |
| 20260502225506 | 18 | 213 | 8.0 | 14.5 | 0.00 | 0.00 | 0.00 | 22 | 1015.6 |
| 20260502225009 | 19 | 226 | 4.8 | 14.5 | 0.00 | 0.00 | 0.00 | 22 | 1015.6 |
| 20260502224525 | 18 | 225 | 6.4 | 14.5 | 0.00 | 0.00 | 0.00 | 25 | 1015.7 |
| 20260502224009 | 19 | 214 | 8.0 | 11.3 | 0.00 | 0.00 | 0.00 | 23 | 1015.6 |
| 20260502223014 | 18 | 234 | 6.4 | 14.5 | 0.00 | 0.00 | 0.00 | 23 | 1015.8 |
| 20260502221003 | 18 | 327 | 3.2 | 12.9 | 0.00 | 0.00 | 0.00 | 23 | 1015.9 |
| 20260502220504 | 18 | 340 | 3.2 | 16.1 | 0.00 | 0.00 | 0.00 | 24 | 1015.9 |
| 20260502220013 | 19 | 248 | 1.6 | 16.1 | 0.00 | 0.00 | 0.00 | 24 | 1016.0 |
| 20260502215503 | 19 | 200 | 3.2 | 9.7 | 0.00 | 0.00 | 0.00 | 23 | 1016.0 |
| 20260502215002 | 20 | 196 | 1.6 | 6.4 | 0.00 | 0.00 | 0.00 | 24 | 1016.0 |
| 20260502214509 | 19 | 216 | 0.0 | 9.7 | 0.00 | 0.00 | 0.00 | 24 | 1016.1 |
| 20260502214003 | 19 | 230 | 4.8 | 12.9 | 0.00 | 0.00 | 0.00 | 23 | 1016.2 |
| 20260502213504 | 18 | 229 | 4.8 | 12.9 | 0.00 | 0.00 | 0.00 | 24 | 1016.2 |
| 20260502213032 | 19 | 237 | 4.8 | 11.3 | 0.00 | 0.00 | 0.00 | 24 | 1016.2 |
| 20260502212505 | 19 | 204 | 4.8 | 11.3 | 0.00 | 0.00 | 0.00 | 24 | 1016.3 |
| 20260502212004 | 19 | 319 | 3.2 | 9.7 | 0.00 | 0.00 | 0.00 | 26 | 1016.3 |
| 20260502211516 | 19 | 209 | 1.6 | 12.9 | 0.00 | 0.00 | 0.00 | 25 | 1016.3 |
| 20260502210505 | 18 | 339 | 4.8 | 12.9 | 0.00 | 0.00 | 0.00 | 25 | 1016.6 |
| 20260502210012 | 19 | 117 | 3.2 | 12.9 | 0.00 | 0.00 | 0.00 | 27 | 1016.6 |
| 20260502205504 | 19 | 79 | 3.2 | 12.9 | 0.00 | 0.00 | 0.00 | 27 | 1016.6 |
| 20260502205008 | 18 | 234 | 1.6 | 8.0 | 0.00 | 0.00 | 0.00 | 26 | 1016.7 |
| 20260502204512 | 18 | 69 | 3.2 | 12.9 | 0.00 | 0.00 | 0.00 | 24 | 1016.8 |
| 20260502204006 | 18 | 224 | 8.0 | 12.9 | 0.00 | 0.00 | 0.00 | 25 | 1016.8 |
| 20260502203503 | 18 | 155 | 3.2 | 8.0 | 0.00 | 0.00 | 0.00 | 25 | 1016.8 |
| 20260502203016 | 18 | 9 | 1.6 | 8.0 | 0.00 | 0.00 | 0.00 | 24 | 1016.8 |
| 20260502202507 | 18 | 5 | 1.6 | 8.0 | 0.00 | 0.00 | 0.00 | 30 | 1016.9 |
| 20260502202002 | 18 | 223 | 3.2 | 12.9 | 0.00 | 0.00 | 0.00 | 25 | 1017.0 |
| 20260502201522 | 18 | 57 | 1.6 | 12.9 | 0.00 | 0.00 | 0.00 | 24 | 1017.1 |
| 20260502201008 | 18 | 335 | 4.8 | 12.9 | 0.00 | 0.00 | 0.00 | 26 | 1017.2 |
| 20260502200507 | 18 | 335 | 3.2 | 12.9 | 0.00 | 0.00 | 0.00 | 24 | 1017.2 |
| 20260502200012 | 18 | 331 | 6.4 | 12.9 | 0.00 | 0.00 | 0.00 | 27 | 1017.1 |
| 20260502195006 | 18 | 261 | 3.2 | 8.0 | 0.00 | 0.00 | 0.00 | 26 | 1017.3 |
| 20260502194004 | 18 | 335 | 0.0 | 9.7 | 0.00 | 0.00 | 0.00 | 27 | 1017.3 |
| 20260502193505 | 18 | 113 | 4.8 | 14.5 | 0.00 | 0.00 | 0.00 | 26 | 1017.4 |
| 20260502192505 | 17 | 227 | 3.2 | 12.9 | 0.00 | 0.00 | 0.00 | 27 | 1017.5 |
| 20260502192008 | 17 | 225 | 8.0 | 12.9 | 0.00 | 0.00 | 0.00 | 26 | 1017.5 |
| 20260502191514 | 17 | 220 | 3.2 | 8.0 | 0.00 | 0.00 | 0.00 | 26 | 1017.5 |
| 20260502191004 | 18 | 274 | 1.6 | 8.0 | 0.00 | 0.00 | 0.00 | 27 | 1017.6 |
| 20260502190009 | 17 | 207 | 3.2 | 8.0 | 0.00 | 0.00 | 0.00 | 25 | 1017.7 |
| 20260502185503 | 18 | 25 | 3.2 | 8.0 | 0.00 | 0.00 | 0.00 | 25 | 1017.8 |
| 20260502184007 | 17 | 20 | 4.8 | 9.7 | 0.00 | 0.00 | 0.00 | 29 | 1017.9 |
| 20260502183507 | 17 | 227 | 1.6 | 8.0 | 0.00 | 0.00 | 0.00 | 29 | 1018.0 |
| 20260502183024 | 16 | 169 | 0.0 | 8.0 | 0.00 | 0.00 | 0.00 | 29 | 1018.1 |
| 20260502182507 | 16 | 178 | 1.6 | 8.0 | 0.00 | 0.00 | 0.00 | 29 | 1018.1 |
| 20260502182004 | 16 | 167 | 1.6 | 4.8 | 0.00 | 0.00 | 0.00 | 28 | 1018.2 |
| 20260502181514 | 16 | 279 | 1.6 | 4.8 | 0.00 | 0.00 | 0.00 | 29 | 1018.3 |
| 20260502181006 | 16 | 252 | 0.0 | 4.8 | 0.00 | 0.00 | 0.00 | 32 | 1018.3 |
| 20260502180507 | 16 | 203 | 1.6 | 6.4 | 0.00 | 0.00 | 0.00 | 32 | 1018.4 |
| 20260502170509 | 13 | 155 | 1.6 | 8.0 | 0.00 | 0.00 | 0.00 | 39 | 1018.7 |
| 20260502164007 | 13 | 171 | 1.6 | 4.8 | 0.00 | 0.00 | 0.00 | 41 | 1018.8 |
| 20260502163020 | 12 | 180 | 1.6 | 9.7 | 0.00 | 0.00 | 0.00 | 40 | 1018.8 |
| 20260502162007 | 12 | 254 | 1.6 | 6.4 | 0.00 | 0.00 | 0.00 | 43 | 1018.9 |
| 20260502161517 | 12 | 69 | 0.0 | 6.4 | 0.00 | 0.00 | 0.00 | 40 | 1018.9 |
| 20260502160510 | 12 | 216 | 1.6 | 6.4 | 0.00 | 0.00 | 0.00 | 47 | 1019.0 |
| 20260502152014 | 9 | 232 | 1.6 | 4.8 | 0.00 | 0.00 | 0.00 | 54 | 1019.1 |
| 20260502151520 | 8 | 295 | 1.6 | 4.8 | 0.00 | 0.00 | 0.00 | 54 | 1019.2 |
| 20260502151006 | 8 | 310 | 0.0 | 4.8 | 0.00 | 0.00 | 0.00 | 59 | 1019.2 |
| 20260502114519 | 1 | 5 | 0.0 | 0.0 | 0.00 | 0.00 | 0.00 | 79 | 1018.9 |
| 20260502114008 | 1 | 5 | 0.0 | 0.0 | 0.00 | 0.00 | 0.00 | 78 | 1018.9 |
| 20260502113508 | 1 | 5 | 0.0 | 0.0 | 0.00 | 0.00 | 0.00 | 78 | 1018.8 |
| 20260502113027 | 1 | 5 | 0.0 | 0.0 | 0.00 | 0.00 | 0.00 | 78 | 1018.8 |
| 20260502112507 | 1 | 5 | 0.0 | 0.0 | 0.00 | 0.00 | 0.00 | 79 | 1018.8 |
| 20260502112010 | 1 | 5 | 0.0 | 0.0 | 0.00 | 0.00 | 0.00 | 78 | 1018.7 |
| 20260502110504 | 1 | 5 | 0.0 | 0.0 | 0.00 | 0.00 | 0.00 | 78 | 1018.6 |
| 20260502105505 | 1 | 5 | 0.0 | 1.6 | 0.00 | 0.00 | 0.00 | 77 | 1018.6 |
| 20260502104525 | 2 | 5 | 0.0 | 1.6 | 0.00 | 0.00 | 0.00 | 76 | 1018.6 |
| 20260502103507 | 2 | 5 | 0.0 | 1.6 | 0.00 | 0.00 | 0.00 | 76 | 1018.5 |
| 20260502103022 | 2 | 5 | 0.0 | 1.6 | 0.00 | 0.00 | 0.00 | 77 | 1018.5 |
| 20260502102009 | 2 | 5 | 0.0 | 1.6 | 0.00 | 0.00 | 0.00 | 76 | 1018.5 |
| 20260502101522 | 2 | 5 | 0.0 | 0.0 | 0.00 | 0.00 | 0.00 | 76 | 1018.4 |
| 20260502101008 | 2 | 5 | 0.0 | 0.0 | 0.00 | 0.00 | 0.00 | 76 | 1018.4 |
| 20260502100510 | 2 | 5 | 0.0 | 0.0 | 0.00 | 0.00 | 0.00 | 75 | 1018.4 |
| 20260502091522 | 2 | 5 | 0.0 | 3.2 | 0.00 | 0.00 | 0.00 | 74 | 1018.3 |
| 20260502091008 | 2 | 5 | 0.0 | 3.2 | 0.00 | 0.00 | 0.00 | 74 | 1018.2 |
| 20260502090509 | 2 | 5 | 0.0 | 1.6 | 0.00 | 0.00 | 0.00 | 74 | 1018.1 |
| 20260502071516 | 4 | 5 | 0.0 | 0.0 | 0.00 | 0.00 | 0.00 | 67 | 1018.2 |
| 20260502071011 | 4 | 5 | 0.0 | 1.6 | 0.00 | 0.00 | 0.00 | 68 | 1018.1 |
| 20260502070510 | 5 | 5 | 0.0 | 1.6 | 0.00 | 0.00 | 0.00 | 66 | 1018.1 |
| 20260502070037 | 5 | 5 | 0.0 | 1.6 | 0.00 | 0.00 | 0.00 | 66 | 1018.1 |
| 20260502065510 | 5 | 5 | 0.0 | 1.6 | 0.00 | 0.00 | 0.00 | 67 | 1018.1 |
| 20260502065017 | 5 | 5 | 0.0 | 0.0 | 0.00 | 0.00 | 0.00 | 66 | 1018.1 |
| 20260502064524 | 5 | 5 | 0.0 | 1.6 | 0.00 | 0.00 | 0.00 | 65 | 1018.0 |
| 20260502064008 | 5 | 5 | 0.0 | 1.6 | 0.00 | 0.00 | 0.00 | 65 | 1018.0 |
| 20260502063513 | 5 | 5 | 0.0 | 0.0 | 0.00 | 0.00 | 0.00 | 65 | 1018.0 |
| 20260502063029 | 5 | 5 | 0.0 | 1.6 | 0.00 | 0.00 | 0.00 | 65 | 1018.0 |
| 20260502062511 | 5 | 5 | 0.0 | 1.6 | 0.00 | 0.00 | 0.00 | 65 | 1017.9 |
| 20260502062013 | 5 | 5 | 0.0 | 1.6 | 0.00 | 0.00 | 0.00 | 64 | 1017.8 |
| 20260502061526 | 6 | 5 | 0.0 | 1.6 | 0.00 | 0.00 | 0.00 | 66 | 1017.8 |
| 20260502061011 | 6 | 5 | 0.0 | 1.6 | 0.00 | 0.00 | 0.00 | 64 | 1017.8 |
| 20260502060508 | 6 | 5 | 0.0 | 1.6 | 0.00 | 0.00 | 0.00 | 63 | 1017.8 |
| 20260502060032 | 6 | 5 | 0.0 | 1.6 | 0.00 | 0.00 | 0.00 | 60 | 1017.8 |
| 20260502055511 | 6 | 5 | 0.0 | 1.6 | 0.00 | 0.00 | 0.00 | 59 | 1017.8 |
| 20260502055011 | 6 | 5 | 0.0 | 0.0 | 0.00 | 0.00 | 0.00 | 58 | 1017.8 |
| 20260502054537 | 7 | 5 | 0.0 | 1.6 | 0.00 | 0.00 | 0.00 | 57 | 1017.7 |
| 20260502054010 | 6 | 5 | 0.0 | 1.6 | 0.00 | 0.00 | 0.00 | 57 | 1017.7 |
| 20260502053507 | 7 | 5 | 0.0 | 1.6 | 0.00 | 0.00 | 0.00 | 58 | 1017.7 |
| 20260502053029 | 7 | 5 | 0.0 | 3.2 | 0.00 | 0.00 | 0.00 | 57 | 1017.6 |
| 20260502052514 | 7 | 5 | 0.0 | 3.2 | 0.00 | 0.00 | 0.00 | 58 | 1017.5 |
| 20260502052011 | 7 | 5 | 0.0 | 4.8 | 0.00 | 0.00 | 0.00 | 55 | 1017.5 |
| 20260502051524 | 7 | 9 | 1.6 | 4.8 | 0.00 | 0.00 | 0.00 | 54 | 1017.5 |
| 20260502051013 | 7 | 346 | 1.6 | 3.2 | 0.00 | 0.00 | 0.00 | 55 | 1017.5 |
| 20260502050509 | 7 | 340 | 0.0 | 3.2 | 0.00 | 0.00 | 0.00 | 57 | 1017.5 |
| 20260502050028 | 7 | 340 | 1.6 | 4.8 | 0.00 | 0.00 | 0.00 | 55 | 1017.5 |
| 20260502045509 | 7 | 344 | 1.6 | 4.8 | 0.00 | 0.00 | 0.00 | 56 | 1017.5 |
| 20260502045015 | 7 | 331 | 1.6 | 3.2 | 0.00 | 0.00 | 0.00 | 57 | 1017.6 |
| 20260502044520 | 7 | 331 | 0.0 | 4.8 | 0.00 | 0.00 | 0.00 | 55 | 1017.5 |
| 20260502044007 | 7 | 335 | 1.6 | 4.8 | 0.00 | 0.00 | 0.00 | 56 | 1017.5 |
| 20260502043513 | 8 | 346 | 0.0 | 3.2 | 0.00 | 0.00 | 0.00 | 55 | 1017.5 |
| 20260502043004 | 8 | 345 | 0.0 | 3.2 | 0.00 | 0.00 | 0.00 | 55 | 1017.5 |
| 20260502042504 | 8 | 355 | 0.0 | 3.2 | 0.00 | 0.00 | 0.00 | 53 | 1017.5 |
| 20260502041520 | 8 | 346 | 0.0 | 4.8 | 0.00 | 0.00 | 0.00 | 52 | 1017.5 |
| 20260502041004 | 8 | 346 | 0.0 | 6.4 | 0.00 | 0.00 | 0.00 | 51 | 1017.5 |
| 20260502040505 | 8 | 349 | 3.2 | 6.4 | 0.00 | 0.00 | 0.00 | 50 | 1017.4 |
| 20260502040025 | 9 | 5 | 0.0 | 6.4 | 0.00 | 0.00 | 0.00 | 50 | 1017.4 |
| 20260502035506 | 9 | 346 | 3.2 | 6.4 | 0.00 | 0.00 | 0.00 | 49 | 1017.4 |
| 20260502035007 | 9 | 339 | 0.0 | 6.4 | 0.00 | 0.00 | 0.00 | 49 | 1017.4 |
| 20260502034518 | 10 | 351 | 1.6 | 6.4 | 0.00 | 0.00 | 0.00 | 50 | 1017.4 |
| 20260502034009 | 9 | 360 | 1.6 | 4.8 | 0.00 | 0.00 | 0.00 | 46 | 1017.4 |
| 20260502033510 | 10 | 348 | 0.0 | 4.8 | 0.00 | 0.00 | 0.00 | 48 | 1017.3 |
| 20260502033029 | 10 | 352 | 1.6 | 4.8 | 0.00 | 0.00 | 0.00 | 46 | 1017.2 |
| 20260502032508 | 10 | 346 | 0.0 | 4.8 | 0.00 | 0.00 | 0.00 | 45 | 1017.2 |
| 20260502032012 | 10 | 342 | 0.0 | 3.2 | 0.00 | 0.00 | 0.00 | 45 | 1017.2 |
| 20260502031506 | 11 | 342 | 0.0 | 0.0 | 0.00 | 0.00 | 0.00 | 44 | 1017.1 |
| 20260502030505 | 11 | 342 | 0.0 | 3.2 | 0.00 | 0.00 | 0.00 | 42 | 1017.0 |
| 20260502030010 | 11 | 342 | 0.0 | 6.4 | 0.00 | 0.00 | 0.00 | 41 | 1016.9 |
| 20260502025505 | 12 | 346 | 1.6 | 6.4 | 0.00 | 0.00 | 0.00 | 39 | 1016.8 |
| 20260502025007 | 12 | 342 | 0.0 | 3.2 | 0.00 | 0.00 | 0.00 | 39 | 1016.7 |
| 20260502024515 | 12 | 342 | 0.0 | 1.6 | 0.00 | 0.00 | 0.00 | 39 | 1016.7 |
| 20260502024007 | 13 | 342 | 0.0 | 0.0 | 0.00 | 0.00 | 0.00 | 38 | 1016.7 |
| 20260502023511 | 13 | 342 | 0.0 | 3.2 | 0.00 | 0.00 | 0.00 | 37 | 1016.7 |
| 20260502023029 | 14 | 342 | 0.0 | 3.2 | 0.00 | 0.00 | 0.00 | 34 | 1016.7 |
| 20260502022507 | 15 | 342 | 0.0 | 4.8 | 0.00 | 0.00 | 0.00 | 32 | 1016.7 |
| 20260502022009 | 15 | 340 | 0.0 | 4.8 | 0.00 | 0.00 | 0.00 | 30 | 1016.7 |
| 20260502021522 | 16 | 345 | 0.0 | 3.2 | 0.00 | 0.00 | 0.00 | 28 | 1016.6 |
| 20260502021008 | 16 | 346 | 1.6 | 3.2 | 0.00 | 0.00 | 0.00 | 26 | 1016.6 |
| 20260502020507 | 17 | 331 | 0.0 | 4.8 | 0.00 | 0.00 | 0.00 | 25 | 1016.7 |
| 20260502020010 | 17 | 350 | 0.0 | 6.4 | 0.00 | 0.00 | 0.00 | 25 | 1016.6 |
| 20260502015505 | 17 | 344 | 0.0 | 6.4 | 0.00 | 0.00 | 0.00 | 25 | 1016.6 |
| 20260502015006 | 18 | 325 | 0.0 | 4.8 | 0.00 | 0.00 | 0.00 | 24 | 1016.6 |
| 20260502014511 | 18 | 17 | 0.0 | 6.4 | 0.00 | 0.00 | 0.00 | 23 | 1016.6 |
| 20260502014004 | 18 | 336 | 0.0 | 6.4 | 0.00 | 0.00 | 0.00 | 26 | 1016.6 |
| 20260502013506 | 18 | 295 | 0.0 | 9.7 | 0.00 | 0.00 | 0.00 | 23 | 1016.6 |
| 20260502013017 | 18 | 306 | 1.6 | 9.7 | 0.00 | 0.00 | 0.00 | 23 | 1016.6 |
| 20260502012508 | 18 | 250 | 1.6 | 8.0 | 0.00 | 0.00 | 0.00 | 22 | 1016.6 |
| 20260502012005 | 18 | 340 | 1.6 | 8.0 | 0.00 | 0.00 | 0.00 | 24 | 1016.6 |
| 20260502011520 | 18 | 237 | 3.2 | 14.5 | 0.00 | 0.00 | 0.00 | 22 | 1016.6 |
| 20260502011008 | 19 | 22 | 1.6 | 14.5 | 0.00 | 0.00 | 0.00 | 22 | 1016.6 |
| 20260502010508 | 19 | 319 | 3.2 | 14.5 | 0.00 | 0.00 | 0.00 | 21 | 1016.6 |